Volver al catálogo

DELTA 1 DEB

ActivoSSO
NORAD 7173·DEBRIS·🇺🇸 United States

Lanzado Nov 6, 1973 desde Vandenberg Space Force Base

Loading…

Próximos Pases (próximas 24 horas)

TLE

ActualizadoSource: Space-Track

Época: Sep 14, 2026, 08:00 UTC

1 07173U 73086EK  26257.33355120  .00000072  00000-0  95378-3 0  9990
2 07173 102.5604  45.9852 0223977 318.2820  68.9915 12.28306998188851

Sigue DELTA 1 DEB en tiempo real con AllMySat

Download on the App Store